Other Public Products
Issued by NWS Grand Forks, ND

Home | Current Version | Previous Version | Text Only | Print | Product List | Glossary Off
Versions: 1 2 3 4 5 6 7 8 9 10 11 12 13 14 15 16 17 18 19 20 21 22 23 24 25 26 27 28 29 30 31 32 33 34 35 36 37 38 39 40 41 42 43 44 45 46 47 48 49 50

000
FPUS83 KFGF 230110
OPUFGF
PRAIRIE TO PINES WEATHER ROUNDUP
NATIONAL WEATHER SERVICE EASTERN NORTH DAKOTA/GRAND FORKS ND
800 PM CDT WED MAR 22 2017

 **SATELLITE DATA USED TO AUGMENT SKY COVER AT AUTOMATED STATIONS**
 *****  WEATHER ACROSS EASTERN NORTH DAKOTA  *****

CITY           SKY/WX    TMP DP  RH WIND       PRES   REMARKS
GRAND FORKS    CLOUDY    31  17  56 SE16      30.10F WCI  20
GRAND FORKS AF CLOUDY    31  20  61 S20G29    30.08F WCI  19
GRAND CITY NWS NOT AVBL
BUXTON         NOT AVBL
DEVILS LAKE    FAIR      29  24  82 S22G29    29.99S WCI  15
FARGO          CLOUDY    34  23  64 SE25G36   30.12F WCI  21
WAHPETON ARPT  CLOUDY    32  23  69 SE21G30   30.14S WCI  20
$$

 *****  WEATHER ACROSS CENTRAL AND WESTERN NORTH DAKOTA  *****

CITY           SKY/WX    TMP DP  RH WIND       PRES   REMARKS
JAMESTOWN      FAIR      30  25  81 SE18      29.99F WCI  18
BISMARCK       FAIR      38  29  70 SE12      29.89R
MINOT          FAIR      38  30  73 SE15      29.84F
MINOT AFB      MOCLDY    37  31  79 SE13      29.83F
GARRISON         N/A     35  30  82 SE14      29.85R
WILLISTON      FAIR      49  32  52 S5        29.78S
DICKINSON      FAIR      48  36  63 SE6       29.76S
HETTINGER      FAIR      52  37  56 SE8       29.80R
$$

 *****  OTHER OBSERVATIONS NORTHEAST NORTH DAKOTA  *****

CITY           SKY/WX    TMP DP  RH WIND       PRES   REMARKS
WALHALLA       NOT AVBL
LANGDON        NOT AVBL
CAVALIER       NOT AVBL
GRAFTON        CLOUDY    30  23  74 SE22G29   30.11F WCI  17
CANDO          NOT AVBL
FORT TOTTEN      N/A     29  25  85 S16       29.95S WCI  17
ROLLA          CLOUDY    28  27  93 S21G30    29.93F WCI  15
RUGBY            N/A     32  28  86 SE20G25   29.92S WCI  20
 ***** THE ABOVE OBSERVATIONS ARE NON NWS ARE NOT QUALITY
        CONTROLLED AND MAY MIS-REPORT RAIN FOR SNOW...
$$

 *****  OTHER OBSERVATIONS SOUTHEAST NORTH DAKOTA *****

CITY           SKY/WX    TMP DP  RH WIND       PRES   REMARKS
COOPERSTOWN    CLOUDY    30  25  80 SE23G33   30.04F WCI  17
VALLEY CITY    FLURRIES  30  28  93 SE20      30.05F WCI  18
OAKES          NOT AVBL
GWINNER        CLOUDY    32  27  80 MISG      30.08F
SHEYENNE NWR     N/A     33  22  64 S18       29.95S WCI  22
BUFFALO        NOT AVBL
WYNDMERE       NOT AVBL
 ***** THE ABOVE OBSERVATIONS ARE NON NWS ARE NOT QUALITY
       CONTROLLED AND MAY MIS-REPORT RAIN FOR SNOW...
$$

  *****  WEATHER ACROSS NORTHERN MINNESOTA  *****

CITY           SKY/WX    TMP DP  RH WIND       PRES   REMARKS
FLAG ISLAND    CLOUDY    28  19  69 S10       30.19F WCI  19
WARROAD        CLOUDY    34  14  44 SE14      30.19F WCI  24
ROSEAU         LGT SNOW  30  21  69 SE16G25   30.17F WCI  19
HALLOCK        CLOUDY    30  25  80 SE16      30.11F WCI  19
THF RVR FALLS    N/A    N/A N/A N/A MISG        N/A
HALSTAD          N/A     33  21  62 S22         N/A  WCI  21
FOSSTON        CLOUDY    30  16  55 SE12      30.16F WCI  21
BAUDETTE       CLOUDY    33   9  36 S10       30.20F WCI  25
WASKISH        CLOUDY    34  10  37 SE8       30.21F
CROOKSTON      CLOUDY    30  21  69 S16       30.14F WCI  19
$$
  *****  WEATHER ACROSS CENTRAL AND WEST MINNESOTA  *****

CITY           SKY/WX    TMP DP  RH WIND       PRES   REMARKS
BEMIDJI        CLOUDY    31  16  54 SE15      30.19F WCI  20
PARK RAPIDS    CLOUDY    33  10  38 SE17      30.20F WCI  22
WADENA         MIX PCPN  30  21  69 SE15G23   30.21F WCI  19
DETROIT LAKES  FAIR      32  21  64 SE22G30   30.16F WCI  19
MOORHEAD       CLOUDY    34  21  60 SE22G29   30.14F WCI  22
FERGUS FALLS   CLOUDY    34  21  60 SE18G26   30.20F WCI  23
ELBOW LAKE     CLOUDY    32  23  69 E23G32    30.17F WCI  19
MORRIS MN      CLOUDY    34  25  69 SE23G31   30.17F WCI  22
STAPLES        CLOUDY    30  16  55 SE10G17   30.23F WCI  21
WHEATON        CLOUDY    34  25  69 SE24G32   30.15F WCI  21
$$
  *****  WEATHER ELSEWHERE ACROSS MINNESOTA  *****

CITY           SKY/WX    TMP DP  RH WIND       PRES   REMARKS
DULUTH         FAIR      26  19  74 E12       30.32F WCI  16
INTRNTL FALLS  CLOUDY    33   9  36 SE7       30.25S
ELY            CLOUDY    30   7  37 S6        30.30F WCI  24
CLOQUET        CLOUDY    28  18  64 E8        30.32S WCI  20
BRAINERD       CLOUDY    34   9  35 SE12      30.26F
HIBBING        CLOUDY    32   8  36 SE6       30.27F
ALEXANDRIA     CLOUDY    32  21  64 SE18      30.21F WCI  20
SAINT CLOUD    CLOUDY    35  17  47 SE15      30.28F
MINNEAPOLIS    CLOUDY    38  13  35 SE13      30.33F
$$

  *****  WEATHER ACROSS SOUTH DAKOTA  *****

CITY           SKY/WX    TMP DP  RH WIND       PRES   REMARKS
SIOUX FALLS    CLOUDY    40  25  55 S18       30.14S
BROOKINGS      CLOUDY    35  24  64 SE22G30   30.10F WCI  23
WATERTOWN      CLOUDY    33  24  69 SE21G32   30.07F WCI  21
HURON          FAIR      38  25  59 SE15G25   30.03F
SISSETON         N/A     33  27  78 S25       30.10F WCI  20
ABERDEEN       FAIR      35  23  61 SE14      30.05F
MITCHELL       FAIR      40  26  57 SE21      30.05F
PIERRE         FAIR      50  30  46 SE18G30   29.86S
MOBRIDGE       FAIR      44  28  53 SE23G33   29.84F
RAPID CITY     FAIR      54  40  59 NW7       29.78R
$$

  *****  SOME WEATHER IN NEARBY STATES *****

CITY           SKY/WX    TMP DP  RH WIND       PRES   REMARKS
GLASGOW MT     FAIR      54  38  54 SE9       29.72S
GREAT FALLS MT FAIR      54  23  30 SW9       29.75R
CHEYENNE WY    FAIR      61  31  32 S12       29.87S
SCOTTSBLUFF NE FAIR      62  34  35 SE18      29.81R
OMAHA NE       MOCLDY    47  23  38 SE21G26   30.19S
DES MOINES IA  CLOUDY    45  22  40 E13G21    30.29F
DAVENPORT IA   FAIR      39  20  46 SE12      30.43S
CHICAGO IL     MOCLDY    30  17  58 NE8       30.49F WCI  22
EAU CLAIRE WI  MOCLDY    35   8  32 SE5       30.37F
LA CROSSE WI   FAIR      38  14  37 S6        30.40F
$$

  *****  SOME NATIONAL WEATHER *****

CITY           SKY/WX    TMP DP  RH WIND       PRES   REMARKS
LA GUARDIA NY  FAIR      30  -1  26 NW25G35   30.38R WCI  16
RALEIGH NC     FAIR      47  13  25 E7        30.33R
ATLANTA GA     MOCLDY    58  32  37 NW8       30.20R
NEW ORLEANS LA FAIR      73  60  63 CALM      30.13R
OKLAHOMA CITY  CLOUDY    65  55  70 SE16      30.04F
ALBUQUERQUE NM MOCLDY    77   8   7 S30G38    29.91R
SALT LAKE CITY CLOUDY    56  43  61 NW3       29.76F
LOS ANGELES CA FAIR      61  55  81 SW23      29.96S
BOISE ID       FAIR      58  30  34 W8        29.83S
SEATTLE WA     PTSUNNY   49  43  80 SW21G35   29.96R
$$

*** WEATHER ACROSS MANITOBA...SASKATCHEWAN AND ONTARIO ***
                ***ONTARIO***

CITY           SKY/WX    TMP DP  RH WIND       PRES   REMARKS
GERALDTON      PTCLDY    18  -9  29 CALM      30.36F
THUNDER BAY    PTCLDY    25  10  54 S3        30.42F
SIOUX LOOKOUT  MOCLDY    28  -2  26 S5        30.26F WCI  23
TORONTO        CLEAR     23   7  50 N13       30.52R WCI  11
BIG TROUT LK   CLEAR     12  -2  52 S2        30.24F
PICKLE LAKE    PTCLDY    23  -4  30 S6        30.27F WCI  16
DRYDEN         CLOUDY    30   5  34 SE7       30.24F WCI  23
KENORA         NOT AVBL
$$
                *** MANITOBA***

CITY           SKY/WX    TMP DP  RH WIND       PRES   REMARKS
BRANDON        CLOUDY    28  23  80 SE18G26   29.95F WCI  16
DAUPHIN        CLOUDY    27  23  86 SE9       29.93F WCI  17
ISLAND LAKE    CLOUDY    30   3  31 S10       30.12F WCI  21
PILOT MOUND      N/A     27  23  86 S22G29      N/A  WCI  12
THE PAS        LGT SNOW  21  18  86 SE22      29.85F VSB 5/8 WCI   5
THOMPSON       CLOUDY    27   0  31 VRB2      29.99F
WINNIPEG       CLOUDY    30  18  59 S20       30.10F WCI  18
LYNN LAKE      CLOUDY    25   7  46 SE10G17   29.85F WCI  15
CHURCHILL      PTCLDY    12   5  73 S9        30.09F WCI   0
GILLAM         CLEAR     23  -6  28 SE5       30.10F WCI  17
$$
                ***SASKATCHEWAN***

CITY           SKY/WX    TMP DP  RH WIND       PRES   REMARKS
ESTEVAN        PTCLDY    36  32  87 SE12      29.79S
KINDERSLEY     PTCLDY    41  34  75 NW14      29.60S
LLOYDMINSTER   LGT SNOW  27  27 100 NW7       29.60R VSB 3/4 WCI  19
PRINCE ALBERT  CLOUDY    27  23  86 E16G24    29.58F WCI  14
REGINA         PTCLDY    36  30  80 SE20      29.69F
YORKTON        CLOUDY    28  25  86 S14G21    29.78F WC


USA.gov is the U.S. government's official web portal to all federal, state and local government web resources and services.